Location: Proctor
(47.8934°N, 114.3048°W)
Time: 21:57:21
(UTC+00:00)

Tiros 1 despin weight - Pass Details

Date: 02 July 2024
Orbit: 576 x 620 km, 48.2° (Epoch: 19 July)

Event Time Altitude Azimuth Distance (km) Brightness Sun altitude
Rises 21:01:21 0° 285° (WNW) 2,893 ? 60.4°
Reaches altitude 10° 21:03:45 10° 278° (W) 1,988 ? 60.2°
Maximum altitude 21:08:03 41° 209° (SSW) 903 ? 59.7°
Drops below altitude 10° 21:12:19 10° 139° (SE) 1,978 ? 59.2°
Sets 21:14:43 0° 132° (SE) 2,878 ? 58.9°
